Location: The D'Auria's Ocala Star Observatory
(29.0276°N, 82.1742°W)
Time: 15:43:28
(UTC-04:00)

Daily predictions for brighter satellites

Satellite Brightness Start Highest point End
(mag) Time Altitude Azimuth Time Altitude Azimuth Time Altitude Azimuth
Skynet4D Del rocket 4.4 20:12:46 10° W 20:20:33 75° S 20:27:19 10° E
H-2A R/B 3.2 20:18:05 10° SE 20:21:39 40° ENE 20:25:12 10° N
ALOS 2.5 20:23:19 10° S 20:27:58 75° WSW 20:32:38 10° NNW
Cosmos 2227 4.3 20:23:11 10° N 20:28:45 60° ENE 20:34:20 10° SSE
NOSS 2-3 (D) 4.0 20:25:31 10° SSW 20:30:02 76° WNW 20:35:01 10° NNE
Cosmos 1954 Rocket 4.2 20:24:50 10° N 20:30:04 56° ENE 20:35:16 10° SSE
USA 267 4.1 20:24:23 10° ESE 20:30:09 34° NE 20:35:57 10° NNW
FENGYUN 3A 3.8 20:24:48 10° S 20:30:10 81° WSW 20:35:33 10° NNW
Cosmos 1975 Rocket 3.1 20:25:45 10° N 20:30:12 87° W 20:34:35 10° S
Cosmos 1812 3.9 20:29:24 10° NNW 20:33:08 47° W 20:36:50 10° SSW
ASTRO E2 3.5 20:32:05 10° SW 20:35:44 34° SSE 20:39:12 11° E
Cosmos 1553 Rocket 4.3 20:30:05 10° N 20:35:51 43° E 20:41:34 10° SSE
S3M 4.5 20:30:05 10° NNE 20:35:59 40° E 20:41:54 10° SSE
Resurs 01 Rocket 2.5 20:35:30 10° SE 20:39:26 32° ENE 20:43:22 10° N
Cosmos 2151 Rocket 3.5 20:35:40 10° S 20:40:00 72° E 20:44:24 10° N
Envisat 4.1 20:39:42 10° SE 20:43:49 26° ENE 20:47:58 10° NNE
Cosmos 1602 3.8 20:41:13 10° S 20:45:03 78° W 20:48:53 10° N
Abrixas 2.0 20:43:05 10° SW 20:45:40 85° NW 20:48:15 10° NE
DELTA 2 R/B (1) 3.6 20:41:32 10° WNW 20:47:09 87° NNE 20:51:50 15° ESE
GENESIS II 4.4 20:44:28 10° NNW 20:48:17 51° ENE 20:51:20 15° SE
Cosmos 2263 Rocket 3.1 20:43:46 10° N 20:48:41 30° ENE 20:52:22 15° ESE
Cosmos 2322 Rocket 2.9 20:43:47 10° SSW 20:49:23 59° WNW 20:55:00 10° N
Lacrosse 5 3.2 20:46:00 10° WSW 20:50:50 43° NW 20:55:40 10° NNE
Cosmos 1536 Rocket 3.8 20:50:23 10° N 20:54:33 46° E 20:58:44 10° SSE
ATLAS 2AS CENTAUR R/B 3.2 20:48:18 10° SSW 20:55:45 80° WNW 21:03:49 10° NNE
Atlas Centaur 2 3.0 20:47:40 10° W 20:56:17 87° SSW 21:02:22 18° ESE
SL-16 R/B 3.5 20:57:44 10° SW 21:03:05 43° WNW 21:08:28 10° N
Helios 1B rocket 3.7 21:05:41 10° NE 21:08:10 21° E 21:08:10 21° E
FALCON 9 R/B 3.6 21:06:56 10° S 21:19:38 - ENE 21:10:18 21° SE
Meteor 1-11 Rocket 4.1 21:04:41 10° SSW 21:10:31 70° W 21:16:15 10° N
Centaur AC-116 3.4 21:03:02 10° WSW 21:11:23 49° S 21:12:37 32° ESE
Cosmos 1110 Rocket 3.9 21:07:27 10° S 21:12:34 70° ESE 21:17:43 10° NNE
GPS 2-05 Rocket1 3.2 21:13:04 10° WNW 21:16:25 49° NNE 21:17:20 36° ENE
Cosmos 2322 3.6 21:10:51 10° S 21:16:26 69° ESE 21:22:05 10° NNE
Cosmos 2360 Rocket 2.2 21:15:01 10° SSW 21:20:39 85° WNW 21:26:18 10° NNE
Cosmos 1331 Rocket 3.8 21:18:30 10° S 21:23:39 80° ESE 21:28:52 10° NNE
SeaSat 1 2.4 21:20:14 10° NNE 21:25:11 90° WSW 21:30:06 10° SSW
Meteor 1-23 Rocket 4.2 21:23:36 10° N 21:29:06 59° E 21:31:39 31° SSE
COSMOS 2428 2.9 21:24:08 10° S 21:29:33 45° ESE 21:34:58 10° NE
Cosmos 1850 Rocket 4.1 21:26:47 10° NNW 21:32:06 80° WSW 21:35:26 23° S
Cosmos 1241 Rocket 4.4 21:28:03 10° SSW 21:34:33 68° ESE 21:41:02 10° NNE
Resurs 1-3 4.2 21:31:04 14° S 21:34:42 56° W 21:39:02 10° NNW
Meteosat 1 Rocket2 3.5 21:31:45 10° W 21:36:25 85° S 21:38:59 37° E
Cosmos 220 Rocket 3.9 21:37:28 10° N 21:41:48 68° ENE 21:42:04 65° E
USA 186 3.7 21:45:51 21° SW 21:47:18 30° W 21:50:18 10° NW
Cosmos 2333 4.1 21:42:23 10° S 21:47:58 62° ESE 21:53:32 10° NNE
Cosmos 883 Rocket 4.4 21:42:06 10° N 21:48:16 87° E 21:51:30 30° S
Okean 1 Rocket 4.1 21:45:36 10° SSW 21:49:44 44° W 21:53:55 10° N
Cosmos 1025 Rocket 3.2 21:47:02 10° N 21:50:37 56° NE 21:50:37 56° NE
Cosmos 1939 Rocket 2.8 21:51:36 73° WSW 21:51:44 74° W 21:55:40 10° NNW
Cosmos 1607 3.9 21:45:56 10° NNW 21:52:25 85° ENE 21:54:25 48° SSE
Cosmos 1244 Rocket 4.3 21:53:50 41° SSE 21:56:05 71° E 22:02:11 10° N
Tiangong 1 3.8 21:57:16 10° NW 21:58:00 16° NW 21:58:00 16° NW
USA 238 DEB 4.2 21:53:27 10° NNW 22:00:10 43° ENE 22:01:04 41° ENE
Helios 1A 3.5 22:01:07 54° N 22:01:07 54° N 22:04:28 10° N
USA 238 4.2 21:53:34 10° NNW 22:00:15 42° NE 22:01:09 40° ENE
Cosmos 1818 3.8 21:59:27 10° SW 22:04:49 66° WNW 22:10:14 10° NNE
ERS-1 Rocket 3.8 22:06:57 38° NNE 22:06:57 38° NNE 22:10:27 10° N
YAOGAN 6 4.3 22:10:08 30° NNW 22:10:08 30° NNW 22:12:05 10° NNW
ATLAS 3B R/B 2.6 22:03:11 10° NNW 22:09:41 56° ENE 22:09:58 56° ENE
Cosmos 1238 Rocket 4.2 22:04:29 10° N 22:10:05 51° NE 22:10:05 51° NE
ARGOS 4.3 22:12:31 30° NE 22:12:31 30° NE 22:15:46 10° N
USA 267 3.7 22:10:53 40° S 22:12:53 54° SW 22:19:17 10° NW
Skynet4D Del rocket 4.4 22:06:27 10° W 22:13:16 48° SSW 22:13:29 48° SSW
Resurs 01 Rocket 4.3 22:13:06 10° SW 22:15:53 16° W 22:18:39 10° WNW
ASTRO E2 4.5 22:12:08 10° W 22:14:09 28° W 22:14:09 28° W
Okean 1-7 Rocket 4.3 22:13:10 10° NNW 22:16:59 54° NW 22:16:59 54° NW
Cosmos 2263 Rocket 3.8 22:27:42 10° NW 22:32:26 28° WSW 22:34:06 24° SW
Aureole 3 Rocket 4.2 22:25:35 10° N 22:31:40 61° NNE 22:31:40 61° NNE
Cosmos 1844 Rocket 3.8 22:33:20 10° N 22:36:49 36° N 22:36:49 36° N
Cosmos 2278 Rocket 4.4 22:36:47 10° NNE 22:38:10 15° NNE 22:38:10 15° NNE
H-2A R/B 3.9 22:46:55 21° N 22:46:55 21° N 22:48:35 10° N
Atlas Centaur 2 3.4 22:38:10 10° W 22:45:00 44° SW 22:45:00 44° SW
Cosmos 2219 Rocket 3.4 22:50:02 37° N 22:50:02 37° N 22:53:35 10° N
NOSS 3-4 (A) 4.2 22:51:45 10° SW 22:57:47 49° WNW 23:03:55 10° NNE
NOSS 3-4 (C) 4.2 22:51:51 10° SW 22:57:52 49° WNW 23:04:03 10° NNE
Cosmos 2333 Rocket 4.3 23:29:06 22° NNW 23:29:06 22° NNW 23:31:31 10° N
